CZ-2C DEB

Satellite information

Favourite Embed

Satellite Type and Status

DEBRISIN ORBIT

Key statistics

Satellite CZ-2C DEB at a glance.

Uptime

5093

Days in orbit

Revolutions

≈ 15.9

Per day

Orbit

SSO

Sun Synchronous Orbit

Inclination

98.4

Latest

Satellite identification and parameters

Extended collection of information and parameters for CZ-2C DEB.

Object identification

Identified? True

Debris? True

Object name: CZ-2C DEB

International designator: 2011-039E

Object number (NORAD): 37769

Object ID (CCSDS): 37769

Country: PEOPLES REPUBLIC OF CHINA (PRC)

Current information (Y/N): Y

RCS size: SMALL

Orbital parameters

Period: 90.626 minutes

Inclination: 98.3575 deg

SMA: 6683.352 km

Apoapsis: 319.745 km

Periapsis: 290.688 km

RAAN: 159.6474 deg

Eccentricy: 0.0021739

Argument of periapsis: 164.7126 deg

Mean anomaly: 195.4805 deg

Mean motion: 15.88953922 rev/day

Mean motion (dot): 0.01401937 rev/day2

B* drag term: 0.0049255 1/REarth

Two-line elements (TLE)

Creation date: July 8, 2025, 2:27 a.m.

Reference frame: TEME

Reference center: EARTH

Epoch: July 7, 2025, 8:39 p.m. UTC

TLE line 0: 0 CZ-2C DEB

TLE line 1: 1 37769U 11039E 25188.86042635 .01401937 90276-3 49255-2 0 9993

TLE line 2: 2 37769 98.3575 159.6474 0021739 164.7126 195.4805 15.88953922745534

Live tracking on map

Real-time ground track for satellite CZ-2C DEB.

In-orbit conjunctions

A list of the most updated potential collisions computed for object CZ-2C DEB.

Target Orbit TCA Probability of collision Miss distance Type
OKEAN 4 LEO 2024-11-18 14:16:44 0.0003319093 467.0 (m) PAYLOAD
OBJECT N SSO 2024-07-04 13:12:13 0.000106484 648.0 (m) UNKNOWN

Associated space launch

CZ-2C DEB was lifted into orbit during the mission ‘Long March 2C | Shijian 10-02’, on board a Long March 2 space rocket.

The launch took place on July 29, 2011, 7:42 a.m. from Launch Area 4 (SLS-2 / 603).

For more information about the launch, click the button.

Launch to space Long March 2C | Shijian 10-02
Long March 2C | Shijian 10-02

Agency: N/A

Status: Launch Successful

Launch date: July 29, 2011, 7:42 a.m. UTC

Rocket: Long March 2

Launch pad: Launch Area 4 (SLS-2 / 603)

Location: Jiuquan Satellite Launch Center, People's Republic of China

...

Latest news about this satellite

There are no fresh news available about this satellite. Check back as we update our databases every day.


Newsletter sign-up

Weekly statistics, charts and insights to help you stay on top of the space industry.